Vorticity
-3 7 31 14 10 9 7 5 4 4 3 8 11 12 4 -0 1 3 6 10 14 14 -7 13 6 6 6 4 3 4 5 10 11 8 5 5 7 7 7 6 6 5 5 6
4 5 28 11 6 12 9 4 6 8 8 7 -4 -4 -2 3 5 9 5 2 0 5 6 7 8 7 6 6 8 10 7 3 1 4 6 7 8 8 7 5 4 4 6 5
11 -1 20 9 8 12 11 8 8 7 7 2 2 1 3 7 8 7 4 5 7 10 8 4 7 7 7 6 4 3 5 7 8 9 9 7 7 6 5 5 7 6 6 5
17 15 20 9 9 11 9 10 7 6 8 8 10 1 6 10 8 5 9 9 11 7 9 9 6 5 5 4 4 6 8 6 5 3 3 3 3 4 3 4 5 9 9 6
10 11 10 11 8 15 9 9 7 4 3 3 6 4 12 8 6 8 8 5 6 9 10 10 6 5 5 7 6 5 8 8 4 4 4 4 5 5 6 4 5 5 4 4
3 18 10 9 6 12 9 8 5 4 5 5 9 8 9 11 11 6 4 6 8 9 6 5 5 5 5 8 9 10 8 4 5 5 5 4 5 7 6 5 5 8 13 14
22 13 10 13 6 8 12 3 2 4 4 5 11 7 8 9 3 6 5 8 6 3 3 3 7 4 7 7 8 7 5 5 7 4 3 2 5 8 6 3 5 10 17 22
29 5 8 18 7 7 12 12 11 11 8 9 3 7 4 8 9 7 5 2 1 2 4 -2 1 6 11 7 7 7 3 3 6 5 4 5 4 6 7 12 17 24 16 10
8 8 13 4 11 12 15 6 11 9 8 6 5 6 3 8 6 5 2 2 1 2 -1 2 -0 10 8 6 2 2 5 4 3 5 5 5 5 6 9 13 18 13 1 -2
9 7 12 14 6 9 6 7 4 3 3 4 5 3 3 3 3 -0 2 2 3 1 2 5 5 8 6 3 3 4 2 2 3 2 2 4 4 5 6 4 4 7 1 -1
5 11 10 13 9 10 11 7 10 9 3 5 7 4 1 -3 2 4 3 2 4 6 5 4 10 7 2 3 3 4 3 3 5 5 4 3 4 4 7 13 19 14 6 2
13 13 9 10 7 14 10 14 9 11 9 6 2 2 5 4 3 3 3 3 3 5 7 7 7 0 2 4 3 2 3 3 5 7 6 7 10 13 17 12 6 4 10 19
7 1 5 6 11 3 3 4 8 4 2 2 2 1 1 4 5 8 4 7 8 6 6 9 -2 -3 2 9 1 1 4 5 5 7 10 10 13 10 3 6 19 41 42 46
1 4 9 9 13 11 11 11 10 3 -2 2 2 2 5 5 8 8 8 7 6 5 8 8 -4 -2 9 1 3 4 5 7 9 11 12 10 6 6 13 38 43 36 17 6
6 5 9 8 4 6 9 2 -0 1 1 1 6 9 7 13 15 6 7 7 5 11 4 2 -0 1 2 6 4 7 12 13 11 9 8 7 7 28 46 35 9 7 9 13
8 2 6 4 9 6 9 4 4 6 9 7 7 7 10 10 5 7 7 8 6 0 12 4 -1 9 1 6 11 12 7 9 8 9 4 13 41 45 12 10 7 11 12 14
7 7 11 24 16 5 5 4 15 7 1 12 1 10 19 -0 5 7 4 7 8 6 4 6 7 -1 10 10 8 8 9 7 5 4 24 49 24 10 9 5 16 17 19 11
6 3 14 13 20 1 4 11 2 6 9 11 13 8 3 3 7 8 4 3 5 8 6 5 1 12 7 9 9 8 4 5 9 33 50 13 12 3 13 15 10 15 20 8
15 12 10 -1 -0 2 4 9 8 13 13 7 8 9 4 2 6 6 9 8 7 5 1 6 7 8 7 5 6 4 6 10 40 38 14 11 4 9 7 6 20 23 12 29
7 6 11 5 5 4 9 11 10 11 10 10 10 9 6 9 5 5 9 4 3 7 9 4 8 5 7 5 4 6 13 45 41 12 7 8 5 15 11 12 34 17 23 18
11 15 16 9 12 16 15 12 14 7 7 6 8 6 5 7 6 8 5 6 8 4 7 7 8 6 4 5 6 14 46 39 10 9 9 10 16 9 8 34 19 11 11 18
9 10 18 18 10 8 7 9 9 14 5 2 7 8 8 7 4 5 10 6 5 8 9 8 5 4 5 8 21 55 32 14 12 17 14 14 10 6 34 23 21 29 21 14
12 10 17 18 24 16 15 15 12 14 15 12 10 9 7 8 14 6 5 6 7 8 5 4 5 8 10 35 49 30 18 17 16 10 14 15 8 19 20 17 11 13 12 19
12 4 7 8 9 5 7 10 9 8 9 10 12 12 11 9 8 6 7 6 7 4 5 6 8 19 50 34 23 16 4 -1 6 2 6 15 11 19 7 6 13 12 9 10
8 4 1 3 6 10 8 13 13 13 7 7 13 11 6 7 6 5 6 6 5 5 7 10 39 45 23 18 11 6 7 5 2 2 3 6 16 10 2 5 18 22 19 14
-4 -8 7 16 10 18 16 13 9 9 22 18 4 4 6 6 7 8 7 6 6 10 23 54 32 18 12 10 9 7 6 4 7 4 5 3 12 11 11 8 10 6 6 3
Height
5787 5784 5789 5794 5789 5793 5794 5796 5798 5803 5805 5803 5805 5808 5812 5809 5809 5812 5810 5806 5810 5818 5821 5817 5819 5819 5819 5820 5819 5818 5818 5817 5816 5816 5814 5812 5810 5809 5807 5805 5802 5801 5800 5797
5777 5777 5785 5782 5782 5785 5786 5788 5793 5797 5799 5797 5798 5799 5805 5807 5805 5805 5803 5798 5803 5809 5813 5813 5813 5813 5811 5812 5813 5812 5811 5810 5808 5807 5805 5803 5801 5799 5797 5794 5792 5790 5788 5785
5768 5772 5775 5773 5775 5776 5780 5783 5788 5790 5792 5790 5789 5791 5797 5800 5800 5797 5797 5796 5799 5803 5804 5806 5806 5805 5804 5805 5806 5804 5803 5801 5800 5797 5794 5792 5790 5788 5786 5784 5781 5777 5774 5771
5756 5764 5765 5766 5767 5771 5772 5779 5780 5781 5784 5784 5786 5781 5790 5793 5794 5789 5791 5792 5794 5795 5798 5798 5797 5797 5797 5798 5797 5795 5794 5792 5790 5786 5783 5780 5778 5776 5773 5769 5766 5763 5759 5755
5749 5751 5755 5757 5760 5765 5765 5770 5769 5770 5772 5774 5779 5774 5786 5782 5782 5784 5784 5787 5788 5789 5790 5789 5788 5788 5789 5790 5788 5786 5784 5781 5777 5774 5772 5770 5766 5763 5759 5755 5751 5748 5744 5740
5737 5744 5745 5750 5752 5756 5759 5761 5761 5762 5764 5761 5775 5770 5771 5777 5774 5775 5776 5778 5782 5783 5782 5781 5780 5782 5782 5780 5778 5775 5773 5769 5767 5763 5759 5756 5753 5749 5745 5740 5736 5732 5727 5722
5734 5735 5738 5741 5743 5749 5750 5750 5752 5754 5753 5758 5767 5759 5761 5767 5765 5766 5769 5771 5774 5774 5773 5772 5773 5773 5772 5769 5766 5763 5760 5756 5754 5750 5746 5742 5738 5733 5727 5721 5715 5708 5702 5696
5721 5721 5728 5735 5736 5743 5742 5744 5743 5748 5748 5751 5753 5748 5752 5757 5759 5759 5761 5762 5762 5760 5758 5758 5756 5756 5756 5754 5751 5748 5745 5742 5738 5734 5729 5724 5718 5712 5706 5700 5695 5689 5682 5678
5712 5714 5724 5722 5725 5733 5732 5728 5742 5739 5738 5738 5742 5743 5744 5747 5748 5749 5751 5752 5750 5748 5747 5745 5744 5745 5743 5741 5738 5735 5731 5726 5722 5717 5711 5705 5700 5695 5689 5682 5675 5669 5664 5658
5706 5705 5709 5715 5714 5721 5720 5728 5728 5727 5728 5730 5733 5734 5735 5736 5737 5738 5739 5740 5740 5738 5735 5733 5735 5734 5732 5729 5727 5722 5716 5711 5704 5699 5694 5687 5681 5673 5666 5658 5649 5645 5638 5632
5698 5695 5698 5702 5700 5709 5716 5713 5716 5720 5719 5723 5726 5726 5728 5728 5729 5729 5730 5730 5728 5725 5723 5724 5723 5721 5718 5716 5710 5704 5700 5695 5690 5683 5675 5667 5659 5651 5642 5633 5624 5619 5614 5604
5690 5688 5686 5692 5696 5703 5705 5705 5708 5707 5713 5714 5715 5716 5717 5717 5716 5719 5720 5715 5712 5710 5710 5711 5710 5709 5707 5699 5694 5691 5687 5681 5672 5663 5655 5645 5635 5626 5618 5610 5600 5590 5584 5574
5676 5673 5677 5680 5685 5688 5691 5699 5699 5699 5702 5702 5705 5706 5707 5709 5711 5712 5706 5701 5699 5699 5699 5699 5698 5699 5692 5686 5682 5675 5668 5659 5651 5642 5632 5624 5614 5604 5595 5583 5573 5563 5554 5548
5662 5664 5669 5673 5679 5684 5687 5690 5692 5691 5687 5692 5694 5693 5693 5694 5698 5697 5691 5689 5688 5687 5687 5687 5685 5677 5673 5667 5660 5654 5647 5639 5630 5622 5613 5603 5593 5581 5568 5557 5550 5543 5539 5534
5652 5656 5661 5665 5667 5668 5672 5676 5680 5679 5683 5681 5686 5683 5683 5684 5684 5679 5677 5677 5674 5674 5674 5672 5666 5662 5655 5649 5645 5638 5629 5621 5612 5603 5593 5582 5571 5558 5547 5539 5532 5527 5522 5517
5642 5646 5650 5655 5655 5656 5659 5665 5667 5668 5672 5671 5672 5671 5667 5670 5669 5667 5666 5663 5661 5661 5659 5656 5653 5646 5640 5635 5627 5619 5610 5601 5592 5583 5572 5560 5549 5539 5532 5525 5518 5511 5504 5498
5632 5634 5637 5640 5642 5642 5648 5654 5657 5659 5658 5661 5660 5663 5655 5648 5654 5653 5652 5652 5651 5650 5647 5642 5635 5629 5623 5616 5609 5601 5592 5583 5574 5562 5549 5539 5531 5525 5517 5510 5502 5493 5487 5481
5620 5625 5627 5629 5633 5632 5640 5643 5645 5645 5649 5649 5649 5647 5642 5637 5637 5641 5641 5639 5639 5636 5631 5625 5619 5614 5607 5600 5593 5585 5575 5565 5554 5543 5533 5525 5518 5512 5504 5495 5486 5478 5471 5464
5610 5615 5615 5617 5620 5625 5625 5628 5633 5635 5640 5639 5636 5633 5631 5629 5628 5626 5626 5625 5623 5620 5614 5610 5605 5598 5590 5583 5575 5567 5557 5546 5536 5527 5520 5513 5505 5498 5489 5480 5472 5463 5456 5449
5597 5600 5603 5602 5604 5605 5614 5618 5618 5621 5626 5628 5626 5620 5617 5618 5616 5615 5615 5614 5610 5605 5600 5593 5586 5579 5572 5565 5558 5549 5539 5530 5522 5516 5509 5502 5494 5485 5477 5467 5459 5453 5446 5439
5582 5585 5588 5589 5591 5597 5603 5607 5609 5609 5618 5614 5613 5610 5605 5604 5602 5601 5599 5598 5594 5588 5583 5576 5569 5561 5555 5548 5541 5533 5523 5516 5511 5505 5499 5492 5483 5474 5465 5456 5449 5444 5438 5433
5569 5572 5574 5576 5579 5584 5591 5594 5597 5599 5597 5598 5598 5595 5593 5591 5587 5584 5583 5579 5575 5571 5567 5561 5553 5545 5538 5532 5525 5518 5511 5507 5501 5495 5489 5481 5473 5465 5455 5448 5441 5436 5432 5428
5556 5559 5562 5566 5568 5573 5577 5578 5581 5583 5583 5583 5582 5581 5579 5576 5573 5571 5567 5563 5559 5555 5549 5544 5537 5530 5522 5515 5509 5506 5502 5497 5492 5487 5480 5472 5465 5457 5449 5443 5437 5432 5426 5422
5543 5546 5549 5551 5556 5558 5561 5564 5567 5569 5569 5568 5568 5568 5566 5562 5558 5555 5551 5546 5542 5537 5532 5526 5520 5513 5506 5502 5499 5496 5494 5490 5485 5479 5472 5465 5458 5450 5444 5438 5432 5426 5420 5415
5532 5535 5540 5542 5544 5545 5547 5551 5553 5555 5556 5557 5556 5554 5551 5547 5543 5539 5535 5531 5525 5520 5514 5509 5503 5498 5494 5492 5489 5487 5485 5481 5478 5470 5464 5457 5451 5445 5440 5433 5426 5420 5414 5409
5522 5524 5527 5529 5528 5530 5535 5538 5541 5543 5544 5544 5541 5538 5535 5532 5527 5523 5519 5514 5508 5503 5497 5492 5489 5487 5486 5483 5481 5479 5476 5472 5468 5463 5457 5451 5445 5438 5433 5428 5422 5415 5410 5405